Weather History for Hattiesburg, MS

Change the Weather History Date:

Saturday, May 11, 2013

  Actual Average Record
Temperature  
Mean Temperature 69 °F 73 °F  
Max Temperature 77 °F 85 °F 94 °F (1963)
Min Temperature 60 °F 61 °F 48 °F (1960)
Degree Days  
Heating Degree Days 0 0  
Month to date heating degree days 30 5  
Since 1 July heating degree days 1861 1983  
Cooling Degree Days 4 8  
Month to date cooling degree days 25 73  
Year to date cooling degree days 148 213  
Growing Degree Days 18 (Base 50)    
Moisture  
Dew Point 62 °F    
Average Humidity 82    
Maximum Humidity 100    
Minimum Humidity 64    
Precipitation  
Precipitation 0.02 in 0.15 in 0.85 in (1993)
Month to date precipitation 5.74 1.77  
Year to date precipitation 36.71 23.33  
Sea Level Pressure  
Sea Level Pressure 30.01 in    
Wind  
Wind Speed 4 mph (West)    
Max Wind Speed 13 mph    
Max Gust Speed 23 mph    
Visibility 9 miles    
Events Rain    
T = Trace of Precipitation, MM = Missing Value Source: NWS Daily Summary

Daily Weather History Graph

Daily Weather History Graph

Search for Another Location

Airport:

Trip Planner

Search our weather history database for the weather conditions in past years. The results will help you decide how hot, cold, wet, or windy it might be!

Date:

Astronomy

May. 11, 2013 Rise Set
Actual Time 6:03 AM CDT 7:43 PM CDT
Civil Twilight 5:37 AM CDT 8:09 PM CDT
Nautical Twilight 5:05 AM CDT 8:41 PM CDT
Astronomical Twilight 4:32 AM CDT 9:15 PM CDT
Moon 7:13 AM CDT (5/11) 9:21 PM CDT (5/11)
Length of Visible Light 14h 32m
Length of Day
13h 39m
Waxing Crescent, 3% of the Moon is Illuminated
May 11
Waxing Crescent
May 17
First Quarter
May 24
Full
May 31
Last Quarter
Jun 8
New

Hourly Weather History & Observations

Time (CDT) Temp. Dew Point Humidity Pressure Visibility Wind Dir Wind Speed Gust Speed Precip Events Conditions
12:53 AM 62.1 °F 60.1 °F 93% 30.03 in 7.0 mi Calm Calm - N/A   Clear
1:53 AM 60.1 °F 59.0 °F 96% 30.01 in 4.0 mi Calm Calm - N/A   Clear
2:15 AM 60.8 °F 59.0 °F 94% 30.01 in 4.0 mi Calm Calm - N/A   Partly Cloudy
2:53 AM 61.0 °F 60.1 °F 97% 30.00 in 9.0 mi Calm Calm - N/A   Mostly Cloudy
3:53 AM 62.1 °F 60.1 °F 93% 30.00 in 10.0 mi Calm Calm - N/A   Overcast
4:53 AM 63.0 °F 61.0 °F 93% 29.99 in 10.0 mi South 3.5 mph - N/A   Overcast
5:53 AM 63.0 °F 61.0 °F 93% 29.98 in 10.0 mi Calm Calm - N/A   Scattered Clouds
6:53 AM 63.0 °F 61.0 °F 93% 30.00 in 8.0 mi Calm Calm - 0.00 in Rain Light Rain
7:53 AM 64.0 °F 62.1 °F 93% 30.01 in 10.0 mi Calm Calm - 0.02 in   Clear
8:53 AM 64.9 °F 62.1 °F 90% 30.02 in 10.0 mi WNW 6.9 mph - N/A   Mostly Cloudy
9:53 AM 66.9 °F 62.1 °F 84% 30.02 in 10.0 mi Calm Calm - N/A   Mostly Cloudy
10:07 AM 66.2 °F 62.6 °F 88% 30.03 in 10.0 mi West 4.6 mph - N/A   Mostly Cloudy
10:53 AM 69.1 °F 64.0 °F 84% 30.04 in 10.0 mi SW 4.6 mph - N/A   Overcast
11:53 AM 73.0 °F 64.0 °F 73% 30.02 in 10.0 mi SW 5.8 mph - N/A   Clear
12:18 PM 73.4 °F 62.6 °F 69% 30.03 in 10.0 mi Variable 4.6 mph - N/A   Mostly Cloudy
12:53 PM 75.0 °F 64.0 °F 69% 30.03 in 10.0 mi SSW 10.4 mph 18.4 mph N/A   Mostly Cloudy
1:53 PM 75.0 °F 62.1 °F 64% 30.02 in 10.0 mi WSW 8.1 mph - N/A   Clear
2:53 PM 75.0 °F 63.0 °F 66% 29.99 in 10.0 mi South 4.6 mph - N/A   Partly Cloudy
3:53 PM 75.0 °F 64.0 °F 69% 29.99 in 10.0 mi West 5.8 mph - N/A   Mostly Cloudy
4:53 PM 75.0 °F 64.9 °F 71% 29.97 in 10.0 mi West 5.8 mph - N/A   Mostly Cloudy
5:53 PM 75.9 °F 64.9 °F 69% 29.97 in 10.0 mi West 6.9 mph - N/A   Mostly Cloudy
6:53 PM 75.0 °F 64.0 °F 69% 29.98 in 10.0 mi NW 6.9 mph - N/A   Clear
7:53 PM 73.0 °F 64.9 °F 76% 30.00 in 10.0 mi Calm Calm - N/A   Clear
9:53 PM 70.0 °F 64.0 °F 81% 30.04 in 10.0 mi NNW 5.8 mph - N/A   Partly Cloudy
10:53 PM 69.1 °F 63.0 °F 81% 30.06 in 10.0 mi NNW 8.1 mph - N/A   Clear
11:53 PM 66.9 °F 62.1 °F 84% 30.05 in 10.0 mi North 5.8 mph - N/A   Clear